Weather in Batash

Uzbekistan     38°39′52″N   66°17′54″E
temp.,
°C
wind,
m/s
gust,
m/s
humid.,
%
clouds,
%
prec.,
mm/h
press.,
hPa
HPBL,
m
16 may, sun
sun1623:00+23ese33210 0.0 100821
02:00+21se34270 0.0 100836
05:00+20se33270 0.0 100830
08:00+27s35200 0.0 1009299
11:00+32sw67110 0.0 10092650
14:00+33sw66110 0.0 10083195
17:00+32wsw55100 0.0 10073185
20:00+26nw33150 0.0 100816
17 may, mon
mon1723:00+23sse22180 0.0 100811
02:00+22sse33190 0.0 100921
05:00+21sse33240 0.0 101014
08:00+27sse23190 0.0 1011223
11:00+32wsw34110 0.0 10103238
14:00+33wsw5595 0.0 10093498
17:00+33wsw3384 0.0 10083377
20:00+26nw221440 0.0 100811
18 may, tue
tue1823:00+23ese22168 0.0 100912
02:00+22se33164 0.0 100813
05:00+21se33195 0.0 100812
08:00+27se22150 0.0 1009173
11:00+33sw4680 0.0 10082534
14:00+34sw5680 0.0 10073640
17:00+34wsw4570 0.0 10063580
20:00+26wnw33110 0.0 100716
19 may, wed
wed1923:00+24se22120 0.0 100712
02:00+23sse33120 0.0 100617
05:00+21se33140 0.0 100713
08:00+27sse22120 0.0 1008180
11:00+33wsw2270 0.0 10073202
14:00+35wnw3360 0.0 10063718
17:00+34nnw3375 0.0 10053804
20:00+28n331237 0.0 100624
20 may, thu
thu2023:00+24se221574 0.0 100611
02:00+24ese221598 0.0 100515
05:00+21ene231752 0.0 100515
08:00+27ene231499 0.0 1006183
11:00+33nnw45938 0.0 10062075
14:00+34nnw7588 0.0 10053710
17:00+34nnw7695 0.0 10043961
20:00+28n814186 0.0 1005395